User: anonymous   Login
Location: Sabalos
(43.2860°N, 0.1414°E)
Time: 11:30:50
(UTC+00:00)
Language:

USA 215 - Orbit

View from above orbital plane
View from above orbital plane
View from above satellite
View from above satellite

Ground track
Ground track

The orbit data is extracted from the following two-line orbital elements,

1 37162U 10046A   20221.09296655 0.00000000  00000-0  00000-0 0    02
2 37162 122.9983 137.7769 0002744 165.5799 194.4200 13.41422462    03
Epoch (UTC): 08 August 2020 02:13:52
Eccentricity: 0.0002744
inclination: 122.9983°
perigee height: 1102 km
apogee height: 1106 km
right ascension of ascending node: 137.7769°
argument of perigee: 165.5799°
revolutions per day: 13.41422462
mean anomaly at epoch: 194.4200°
orbit number at epoch: 0

The dashed part of the orbit path shows where the satellite is in the earth's shadow,  

DLR